Location: *
(52.2090°N, 4.1550°W)
Time: 08:44:42
(UTC+00:00)

Cosmos 2278 Rocket - Pass Details

Date: 19 July 2019
Orbit: 840 x 847 km, 71.0° (Epoch: 23 August)

Event Time Altitude Azimuth Distance (km) Brightness Sun altitude
Rises 23:02:14 0° 327° (NNW) 3,415 7.0 -14.9°
Reaches altitude 10° 23:04:42 10° 325° (NW) 2,477 5.9 -15.1°
Maximum altitude 23:10:18 64° 245° (WSW) 935 2.4 -15.3°
Enters shadow 23:13:46 24° 170° (S) 1,696 3.2 -15.5°
